Content
SEND FEEDBACK

Daily
Averages
Monthly
Summary
Mauritania

NOUADHIBOU, MAURITANIA


Home > Africa > Mauritania
Elevation: 10 feet     Latitude: 20 56N     Longitude: 017 02W

WEATHER
 
SELECT A DAY
Number of Records: 117,968;   Date Range: 7/1/96 - 8/19/14
 
SHARE

PRINT THIS DATA

[ ← Previous Day ]
WEATHER ALMANAC - APRIL 17, 2013
[ Next Day → ]
[ °C ]   °F
Weather ElementAverageHighLow
Temperature66.5 °F71.6 °F (12:00 pm)62.6 °F (1:00 am)
Dewpoint60.1 °F62 °F (12:00 pm)59 °F (12:00 am)
Humidity79.6 %92 % (3:00 am)66 % (12:00 pm)
Barometer29.91 in29.96 in (9:00 am)29.86 in (4:00 pm)
Wind Speed18.3 mph24.2 mph (6:00 pm)
Wind Gust35.7 mph (7:00 pm)
Weather ElementAverage
Visibility4.4 mi
Wind DirectionNNW (332.7 °)

Weather ElementTotal
Precipitation---
Cooling Degree Days2.1 (Base 65)
Growing Degree Days17.1 (Base 50)
Averaged from 30 records on April 17, 2013
WEATHER CONDITIONS BREAKOUT
WIND DIRECTION BREAKOUT
WEATHER BY HOUR - APRIL 17, 2013
[ °C ]   °F
Local TimeTemperatureDewpointHumidityBarometerVisibilityWind DirectionWind SpeedGust SpeedPrecipitationEventsConditions
12:00 AM64.4 °F59.0 °F83 %29.95 in5.0 miNNW (340°)16.1 mph
1:00 AM62.6 °F59.0 °F88 %29.92 in5.0 miNNW (340°)15.0 mph
2:00 AM62.6 °F59.0 °F88 %29.92 in5.0 miNNW (340°)18.4 mphScattered Clouds
3:00 AM63.0 °F61.0 °F92 %29.91 in5.0 miNNW (340°)12.7 mphPartly Cloudy
3:00 AM62.6 °F59.0 °F88 %29.89 in5.0 miNNW (340°)16.1 mphScattered Clouds
4:00 AM62.6 °F59.0 °F88 %29.89 in5.0 miNNW (340°)17.3 mphScattered Clouds
5:00 AM62.6 °F59.0 °F88 %29.89 in5.0 miNNW (330°)16.1 mphScattered Clouds
6:00 AM62.6 °F59.0 °F88 %29.89 in5.0 miNNW (340°)15.0 mphScattered Clouds
6:00 AM63.0 °F61.0 °F91 %29.93 in5.0 miNNW (340°)13.8 mphPartly Cloudy
7:00 AM62.6 °F59.0 °F88 %29.92 in5.0 miNNW (340°)17.3 mphScattered Clouds
8:00 AM64.4 °F59.0 °F83 %29.92 in5.0 miNorth (350°)16.1 mphScattered Clouds
9:00 AM66.0 °F61.0 °F80 %29.96 in5.0 miNorth (350°)16.1 mphScattered Clouds
9:00 AM66.2 °F59.0 °F78 %29.95 in5.0 miNNW (340°)17.3 mphScattered Clouds
10:00 AM69.8 °F60.8 °F73 %29.95 in5.0 miNNW (330°)15.0 mphScattered Clouds
11:00 AM69.8 °F60.8 °F73 %29.95 in5.0 miNNW (330°)19.6 mph
12:00 PM71.6 °F60.8 °F69 %29.95 in5.0 miNW (320°)16.1 mph
12:00 PM71.0 °F62.0 °F66 %29.96 in5.0 miNW (320°)20.7 mphClear
1:00 PM71.6 °F60.8 °F69 %29.92 in5.0 miNW (320°)17.3 mph
2:00 PM69.8 °F60.8 °F73 %29.89 in4.3 miNW (320°)23.0 mphLow Drifting Sand
3:00 PM71.6 °F60.8 °F69 %29.89 in2.5 miNW (320°)21.9 mphLow Drifting Sand
4:00 PM71.6 °F60.8 °F69 %29.86 in2.5 miNW (320°)21.9 mphLow Drifting Sand
5:00 PM69.8 °F60.8 °F73 %29.86 in2.5 miNW (320°)21.9 mphLow Drifting Sand
6:00 PM69.8 °F59.0 °F68 %29.86 in2.5 miNNW (330°)23.0 mphLow Drifting Sand
6:00 PM69.0 °F61.0 °F68 %29.88 in2.0 miNW (320°)24.2 mphBlowing Sand
7:00 PM68.0 °F59.0 °F73 %29.86 in2.5 miNNW (330°)23.0 mph35.7 mphLow Drifting Sand
8:00 PM66.2 °F59.0 °F78 %29.89 in3.7 miNNW (330°)21.9 mphLow Drifting Sand
9:00 PM65.0 °F62.0 °F86 %29.92 in5.0 miNNW (340°)18.4 mphClear
9:00 PM66.2 °F60.8 °F83 %29.89 in5.0 miNNW (330°)18.4 mph
10:00 PM64.4 °F60.8 °F88 %29.92 in5.0 miNNW (330°)18.4 mph
11:00 PM64.4 °F60.8 °F88 %29.92 in5.0 miNNW (340°)18.4 mph
Hourly data recorded from GQPP, located miles away from Nouadhibou, Mauritania







STORIES FROM OUR PARTNERS